Wind_Speed
12 13 16 18 20 22 24 26 27 29 31 32 34 35 37 38 37 36 36 35 35 36 36 36 37 37 34 37 30 29 23 16 19 18 22 30 36 38 41 40 38 43 42 38 36 33 36
13 15 17 20 23 25 28 31 32 33 34 36 38 39 40 40 40 37 36 37 35 34 36 37 38 38 38 42 26 30 31 26 24 21 21 28 31 33 38 40 40 40 35 36 38 37 38
14 16 19 22 24 28 31 30 30 32 33 35 38 39 41 42 41 39 41 39 36 33 35 37 37 39 42 35 27 27 21 28 26 26 24 21 22 30 33 35 37 37 38 36 39 33 35
15 18 21 23 26 29 30 29 30 32 33 33 33 33 36 40 39 39 40 41 37 36 35 35 36 39 47 30 32 29 28 23 23 23 24 21 26 27 30 28 23 25 30 33 33 33 35
17 20 23 25 28 31 31 30 30 32 32 32 33 32 33 34 37 36 37 38 37 37 35 34 36 37 43 30 31 28 30 27 30 27 25 23 27 29 28 25 24 26 28 21 22 24 24
18 21 24 26 29 31 32 30 29 31 31 32 34 38 38 36 34 36 35 33 33 36 36 34 37 33 30 24 16 17 24 29 33 30 27 29 29 32 31 27 26 23 26 26 27 28 29
19 22 25 28 31 33 34 31 30 31 32 33 35 39 39 37 33 32 33 29 27 31 36 36 32 28 30 20 15 22 19 24 28 30 30 30 32 38 37 36 35 32 27 27 25 18 23
19 23 25 28 31 34 36 34 32 32 33 35 38 40 38 37 31 29 28 23 21 24 42 35 38 40 34 18 29 21 23 22 24 24 24 27 36 31 29 29 30 29 28 29 29 30 31
20 23 25 29 32 34 36 35 33 33 35 38 40 41 38 35 27 27 24 17 16 23 36 42 34 39 32 31 37 24 25 24 24 23 24 26 16 18 26 26 28 28 26 25 26 26 30
20 23 26 29 32 35 36 34 33 33 36 39 39 39 35 31 24 22 21 16 17 17 21 37 28 26 23 32 40 32 30 26 24 23 21 18 22 17 12 13 21 23 20 19 19 17 11
21 24 27 30 33 35 35 32 31 34 37 38 36 33 29 24 21 18 18 15 11 10 6 8 7 10 15 18 21 26 35 31 27 20 19 12 12 22 21 17 12 11 14 16 17 18 20
23 25 27 30 32 34 33 31 32 35 34 33 31 29 23 18 18 18 17 13 12 8 8 11 8 11 11 15 11 16 30 34 30 22 21 20 9 9 10 8 9 9 10 13 15 10 7
23 25 27 29 32 33 32 31 33 32 30 30 27 24 19 16 13 16 17 10 10 6 5 8 8 12 8 16 9 18 28 30 24 19 24 21 20 17 14 11 10 9 8 5 4 3 5
23 25 27 29 31 32 31 31 29 28 27 26 23 21 16 11 12 16 13 9 9 7 13 26 23 16 15 12 11 17 23 22 20 16 17 15 6 19 10 10 4 1 4 5 4 3 3
23 26 27 28 29 30 30 28 24 23 24 25 23 19 12 13 16 16 10 12 7 9 12 19 14 4 10 11 11 19 17 15 18 16 3 11 5 13 7 3 2 2 3 8 7 22 7
23 26 27 27 27 28 27 22 19 19 22 24 22 16 13 12 12 11 13 20 11 8 19 18 9 9 6 5 14 18 15 11 9 14 6 8 8 8 4 4 4 3 4 2 8 3 4
24 25 25 26 26 25 23 18 12 16 18 20 21 15 12 10 12 10 13 22 23 14 21 16 19 15 6 8 12 16 9 10 12 13 14 7 4 5 4 4 1 5 5 3 6 7 3
24 24 24 24 24 23 19 13 13 16 17 18 18 14 9 8 12 10 13 16 22 5 10 20 26 14 10 10 11 10 14 8 8 11 13 9 4 3 2 7 4 6 7 10 5 5 8
24 23 23 23 22 20 16 11 11 14 17 17 16 13 10 8 12 15 17 15 14 24 19 22 17 13 8 10 8 11 16 17 14 13 11 10 5 6 6 7 5 3 7 11 9 11 10
24 22 21 21 20 17 13 11 11 15 17 16 14 8 8 6 7 12 15 11 5 6 14 20 20 8 6 14 16 12 14 10 11 12 12 9 7 6 3 3 5 8 11 13 13 7 10
23 22 20 21 18 15 13 11 11 13 16 12 11 8 7 4 7 11 9 11 9 15 8 8 5 8 7 10 14 14 15 17 12 11 9 8 6 4 3 7 8 9 12 16 19 24 20
22 21 20 19 17 13 12 11 9 10 9 9 9 8 8 9 10 12 14 4 9 13 7 3 7 9 10 8 10 8 8 7 5 5 7 5 3 5 11 9 7 15 18 9 13 14 24
22 21 19 19 16 13 12 12 10 10 7 7 7 7 8 9 9 10 9 11 7 11 12 8 6 5 2 4 4 4 3 1 1 2 3 3 4 7 5 7 13 16 4 12 15 12 18
23 21 19 18 15 14 14 14 14 10 11 9 6 8 9 11 11 10 10 11 10 11 11 9 4 2 3 4 5 5 6 7 9 10 11 10 8 5 5 8 2 2 10 12 12 12 14
23 21 19 18 16 14 15 16 17 13 12 12 9 10 12 14 12 12 13 11 10 6 5 5 5 5 8 7 6 4 9 4 5 7 6 10 8 3 2 3 14 7 6 3 20 14 16
24 22 19 18 16 15 16 16 17 17 13 15 12 11 11 12 6 9 10 11 11 7 5 4 6 7 6 7 6 2 2 3 1 2 6 6 6 8 5 2 3 5 10 6 19 13 6
25 22 20 18 16 15 17 17 17 17 16 18 14 11 13 11 5 6 8 7 9 8 7 6 6 6 9 9 5 2 1 2 1 1 3 6 4 11 16 8 9 17 18 19 8 8 11
25 23 21 18 16 16 16 16 17 16 15 18 15 14 14 14 9 10 8 8 9 8 7 5 4 3 5 5 5 2 1 1 2 2 3 3 4 4 5 6 8 8 11 8 10 14 15
26 23 21 18 17 17 17 17 17 14 15 19 19 14 13 15 10 6 4 6 10 11 7 5 2 2 5 5 7 3 2 2 2 2 4 3 2 9 10 7 15 17 14 8 6 12 12
Wind_Direction
299 304 307 309 309 309 308 308 306 304 302 299 295 292 288 284 283 286 286 284 281 279 278 276 272 270 266 262 256 255 252 256 266 254 233 229 229 234 240 244 245 250 254 257 260 260 262
300 307 310 312 313 314 313 311 308 308 307 304 300 296 291 288 284 282 281 281 278 276 276 274 273 271 267 260 263 251 250 247 251 247 237 231 234 239 244 242 244 247 260 261 258 257 261
305 308 312 316 316 319 317 311 308 310 311 311 308 303 297 291 286 282 280 277 278 276 271 270 273 272 265 259 263 255 250 239 237 235 233 235 235 236 241 246 249 252 255 256 255 257 255
309 313 317 321 322 322 319 311 311 313 315 318 317 313 308 305 298 287 279 278 279 276 271 269 268 269 266 267 252 254 247 229 229 227 225 235 241 238 239 245 244 252 256 259 264 256 256
311 317 322 323 324 325 322 315 314 314 316 319 320 321 318 315 312 303 285 280 280 277 274 269 266 266 273 271 260 249 242 233 231 229 234 236 231 237 241 245 252 245 251 258 267 260 253
314 320 321 323 323 326 322 313 312 313 314 314 319 322 319 315 316 314 301 286 277 278 275 269 265 265 258 264 264 250 238 227 232 231 229 227 222 229 235 235 234 242 247 257 267 270 263
311 318 323 326 325 325 323 313 308 307 308 312 313 315 314 310 315 316 306 294 284 279 271 265 257 256 257 253 262 240 229 221 226 227 220 222 216 223 231 240 249 254 257 265 266 268 269
315 320 324 325 325 325 322 312 301 301 305 306 308 311 310 307 311 314 307 304 295 290 276 256 263 262 255 248 245 216 210 209 215 218 211 217 228 233 241 246 249 252 259 263 271 270 271
315 319 323 324 325 323 320 312 301 299 302 304 307 307 306 303 307 309 301 291 274 292 290 272 272 264 262 240 242 218 212 212 217 211 211 220 230 235 240 243 245 248 251 260 272 282 275
313 318 321 324 325 322 319 313 302 300 302 304 305 304 302 299 304 305 293 277 270 285 294 295 287 271 253 242 240 228 220 214 220 222 221 234 232 230 208 225 234 247 258 265 273 287 289
309 315 322 326 324 322 320 313 307 307 307 307 306 303 299 299 301 302 292 272 257 265 306 304 300 253 232 236 236 232 214 217 217 214 210 214 222 225 231 238 239 248 262 276 280 286 290
306 316 322 323 323 323 320 313 312 311 311 309 308 306 301 292 302 296 287 258 235 224 247 311 316 308 261 176 178 204 199 207 225 237 234 226 189 183 198 222 235 248 269 285 286 282 267
307 315 318 320 323 323 318 315 315 315 314 313 311 307 301 301 303 287 279 247 255 229 272 312 314 319 236 166 159 187 189 190 197 190 210 216 225 234 245 252 254 262 280 0 10 193 246
307 312 315 320 324 322 318 318 317 318 318 320 313 305 312 301 270 274 272 205 243 277 290 298 302 304 227 199 165 172 171 182 192 193 194 188 200 226 236 221 200 8 189 167 248 220 294
305 309 314 319 324 321 318 319 318 321 323 324 325 322 312 264 273 282 259 208 225 280 293 327 285 358 202 215 193 184 191 192 195 182 177 171 156 157 131 159 181 120 202 251 270 283 256
302 307 311 317 322 320 319 318 321 329 328 331 329 330 299 303 309 286 251 224 243 282 324 329 339 19 25 217 203 185 179 187 182 191 160 134 122 167 189 177 213 241 328 253 222 266 260
298 304 308 315 320 319 318 315 320 329 334 330 331 332 319 319 323 299 273 251 237 267 301 307 326 324 334 23 172 169 161 156 187 194 194 172 116 125 182 200 155 227 262 293 283 266 283
294 300 305 313 317 318 312 305 309 317 321 325 327 335 321 326 328 293 307 283 242 250 307 316 304 342 350 49 111 156 140 124 140 170 171 180 128 136 296 257 259 241 272 277 241 323 283
291 295 300 309 313 315 304 289 299 316 314 319 322 334 323 299 319 334 318 283 274 266 304 319 295 339 342 31 102 100 126 157 132 153 138 138 112 122 106 99 160 221 310 292 283 302 257
284 287 297 304 308 308 295 274 285 302 312 314 321 325 323 323 329 326 331 322 297 287 278 293 291 8 28 65 90 95 102 95 90 96 102 115 97 83 106 349 319 288 306 306 284 268 298
280 284 290 299 304 299 287 268 270 303 309 319 326 315 306 273 339 358 347 312 289 323 239 275 319 45 43 74 82 89 92 87 82 86 74 94 77 25 4 346 304 318 314 313 282 272 276
273 276 283 292 295 285 274 256 254 284 314 338 330 315 302 285 308 327 18 19 336 310 329 118 352 42 51 64 78 80 78 83 93 74 51 48 69 348 321 328 300 302 305 315 302 282 275
269 270 278 287 287 272 261 244 243 258 284 313 337 315 288 272 288 318 341 8 30 21 69 85 66 57 79 38 17 349 346 83 124 309 324 312 319 319 293 308 304 300 171 330 324 291 284
263 264 271 280 279 262 252 237 230 240 256 277 306 319 306 280 280 283 292 321 346 35 23 48 41 341 326 358 357 342 318 305 294 308 300 287 295 313 296 320 261 312 277 300 296 318 310
258 258 264 273 271 255 248 233 227 230 245 265 274 285 288 303 289 274 271 287 306 336 360 1 23 21 22 359 339 359 11 14 55 39 337 251 256 276 286 271 290 328 58 332 352 303 325
253 253 259 266 261 252 242 231 227 229 235 252 268 272 274 287 316 292 270 268 288 302 314 338 2 2 353 2 0 67 67 330 30 55 1 40 238 237 264 272 270 284 267 298 324 295 309
246 248 254 261 253 245 240 230 224 223 230 242 253 260 269 278 307 309 285 282 276 286 290 305 293 317 355 355 5 25 345 160 23 89 339 331 304 242 250 255 265 279 278 280 291 287 312
238 242 249 255 242 240 229 224 220 215 222 237 242 246 262 274 281 283 279 280 264 277 275 299 298 324 347 21 19 13 335 222 255 240 311 308 297 261 228 234 259 270 310 296 271 298 314
234 237 244 245 238 224 220 216 213 212 217 234 243 237 249 263 266 288 291 301 259 244 242 249 246 48 41 31 1 286 242 270 289 305 299 256 297 292 273 266 268 295 312 333 297 270 285
Height
3088 3088 3086 3085 3083 3081 3079 3076 3074 3072 3069 3067 3064 3062 3059 3057 3055 3054 3052 3050 3048 3046 3044 3042 3039 3038 3041 3040 3044 3045 3044 3046 3047 3047 3050 3053 3055 3057 3057 3061 3065 3060 3064 3069 3072 3075 3074
3085 3084 3083 3082 3079 3077 3074 3071 3068 3066 3064 3060 3057 3054 3051 3049 3047 3046 3044 3041 3041 3041 3038 3035 3034 3032 3032 3029 3040 3038 3039 3042 3043 3045 3046 3048 3052 3055 3052 3053 3056 3058 3060 3062 3065 3067 3068
3082 3081 3079 3077 3075 3072 3069 3066 3063 3061 3058 3054 3051 3047 3043 3040 3039 3038 3035 3033 3033 3032 3030 3028 3029 3025 3021 3025 3031 3029 3032 3036 3037 3040 3042 3045 3047 3047 3046 3047 3052 3053 3054 3057 3057 3060 3061
3079 3077 3075 3073 3070 3067 3064 3061 3057 3054 3051 3048 3045 3040 3036 3032 3030 3028 3026 3024 3025 3022 3021 3022 3021 3017 3007 3023 3020 3025 3025 3029 3031 3033 3038 3041 3042 3041 3041 3045 3048 3050 3050 3049 3050 3056 3058
3075 3073 3071 3068 3066 3062 3058 3055 3052 3048 3046 3043 3039 3035 3032 3027 3022 3019 3016 3016 3016 3013 3013 3013 3013 3011 3005 3013 3013 3014 3017 3024 3024 3028 3032 3035 3035 3036 3039 3041 3044 3045 3043 3045 3047 3050 3053
3070 3068 3067 3064 3061 3058 3053 3051 3048 3044 3041 3037 3033 3030 3026 3022 3018 3013 3009 3007 3007 3005 3004 3005 3004 3008 3006 3007 3006 3006 3011 3015 3018 3021 3025 3027 3029 3029 3032 3036 3034 3039 3040 3042 3043 3047 3047
3066 3065 3062 3060 3057 3053 3049 3045 3043 3040 3036 3032 3028 3025 3021 3017 3015 3010 3004 3002 3003 2999 2995 2996 2995 2995 2999 3002 3001 3002 3006 3009 3010 3013 3017 3020 3022 3018 3025 3031 3035 3037 3038 3036 3039 3042 3040
3061 3059 3057 3055 3052 3048 3044 3041 3037 3035 3031 3027 3024 3019 3015 3011 3010 3007 3001 2999 2996 2994 2981 2988 2987 2985 2992 2998 2994 2999 3002 3007 3006 3007 3012 3017 3011 3020 3025 3028 3031 3032 3033 3032 3034 3036 3036
3057 3054 3052 3050 3047 3043 3040 3036 3032 3029 3025 3022 3017 3013 3009 3005 3005 3003 2997 2997 2995 2993 2983 2975 2980 2977 2984 2989 2988 2994 2998 3001 3003 3005 3008 3011 3013 3016 3019 3022 3025 3026 3028 3029 3029 3031 3029
3052 3050 3047 3045 3042 3039 3035 3030 3027 3023 3019 3016 3011 3007 3003 3000 3002 2997 2994 2994 2993 2993 2984 2971 2970 2970 2974 2975 2975 2988 2992 2999 3001 3002 3007 3009 3011 3013 3016 3018 3021 3022 3024 3024 3025 3028 3026
3047 3045 3042 3039 3038 3034 3029 3025 3021 3017 3013 3009 3005 3001 2997 2994 2994 2993 2993 2992 2993 2994 2988 2973 2968 2966 2966 2969 2973 2977 2987 2992 2995 3000 3004 3005 3005 3009 3012 3015 3017 3019 3020 3020 3023 3023 3022
3042 3039 3036 3035 3033 3029 3024 3020 3016 3012 3007 3003 2999 2995 2992 2992 2991 2989 2988 2989 2991 2993 2984 2971 2969 2966 2965 2966 2969 2971 2980 2987 2993 2998 3000 3003 3004 3008 3010 3012 3014 3015 3016 3017 3018 3018 3016
3037 3034 3032 3030 3027 3023 3019 3015 3011 3006 3002 2998 2995 2991 2989 2988 2988 2986 2985 2988 2991 2982 2976 2973 2967 2968 2966 2967 2968 2969 2973 2980 2987 2993 2995 2998 3001 3005 3008 3010 3010 3012 3013 3016 3018 3017 3011
3031 3029 3028 3025 3021 3017 3014 3010 3005 3001 2998 2994 2991 2988 2988 2986 2983 2982 2984 2988 2987 2979 2978 2972 2968 2964 2964 2967 2970 2971 2974 2979 2983 2988 2990 2995 3001 3002 3004 3006 3008 3009 3011 3014 3014 3012 3009
3026 3025 3023 3020 3016 3012 3009 3005 3001 2998 2994 2991 2988 2986 2985 2982 2982 2982 2985 2984 2982 2981 2977 2972 2968 2963 2964 2966 2969 2971 2975 2978 2982 2987 2990 2992 2996 2998 3002 3004 3006 3007 3009 3013 3014 3010 3011
3020 3019 3017 3015 3011 3008 3005 3001 2998 2995 2992 2990 2986 2985 2982 2981 2980 2980 2983 2981 2981 2980 2977 2973 2969 2966 2964 2966 2968 2970 2974 2978 2981 2985 2988 2989 2994 2998 3000 3002 3004 3006 3009 3010 3012 3008 3003
3015 3014 3012 3010 3006 3003 3001 2998 2996 2993 2991 2989 2985 2983 2982 2981 2981 2981 2980 2979 2979 2979 2977 2975 2970 2967 2963 2964 2965 2969 2973 2977 2979 2982 2986 2989 2991 2998 2999 3001 3002 3006 3007 3009 3009 3007 2999
3009 3008 3007 3005 3002 2999 2997 2995 2994 2991 2990 2987 2985 2984 2983 2982 2982 2980 2979 2978 2979 2976 2976 2972 2970 2968 2962 2962 2966 2968 2972 2976 2978 2980 2984 2987 2991 2995 2999 3000 3002 3004 3005 3007 3006 3005 3000
3003 3003 3001 3000 2997 2995 2994 2993 2991 2989 2988 2987 2984 2984 2983 2983 2983 2981 2979 2976 2977 2977 2977 2975 2972 2970 2966 2964 2967 2969 2970 2975 2976 2980 2983 2988 2992 2995 2998 3001 3002 3002 3004 3003 3002 3002 2997
2997 2997 2996 2995 2993 2991 2991 2990 2989 2987 2986 2986 2984 2985 2984 2983 2983 2982 2979 2976 2977 2978 2976 2976 2972 2971 2966 2965 2967 2971 2974 2977 2981 2983 2985 2988 2991 2995 2998 3001 3002 3001 3001 3001 3001 2999 2995
2991 2991 2991 2990 2988 2987 2987 2987 2987 2985 2984 2984 2983 2984 2984 2984 2983 2982 2980 2978 2977 2976 2976 2975 2973 2973 2972 2970 2973 2976 2977 2979 2983 2984 2986 2989 2992 2994 2996 2998 2998 2997 2996 2997 2997 2995 2993
2985 2985 2985 2985 2984 2983 2983 2983 2984 2984 2984 2984 2983 2983 2983 2983 2983 2982 2980 2978 2978 2977 2974 2975 2976 2976 2974 2976 2979 2976 2977 2979 2982 2985 2987 2989 2992 2994 2995 2996 2996 2993 2993 2993 2990 2988 2985
2978 2979 2980 2980 2979 2979 2980 2980 2981 2981 2983 2983 2982 2982 2982 2983 2983 2983 2983 2982 2980 2978 2976 2976 2977 2977 2978 2979 2977 2978 2980 2982 2984 2987 2988 2990 2991 2992 2993 2993 2992 2989 2988 2989 2987 2984 2982
2971 2973 2974 2974 2974 2974 2976 2976 2978 2978 2980 2981 2981 2982 2981 2981 2982 2983 2983 2983 2982 2979 2979 2979 2980 2981 2982 2980 2979 2980 2980 2981 2982 2985 2986 2987 2989 2991 2991 2991 2991 2986 2985 2985 2984 2982 2979
2965 2966 2968 2968 2969 2969 2971 2972 2974 2975 2977 2979 2980 2981 2981 2979 2980 2981 2981 2981 2982 2982 2982 2982 2982 2981 2979 2979 2980 2979 2979 2980 2982 2983 2983 2985 2988 2990 2990 2990 2988 2982 2982 2983 2982 2979 2977
2957 2960 2961 2963 2963 2964 2966 2968 2970 2973 2975 2976 2978 2979 2979 2979 2979 2979 2979 2980 2980 2981 2981 2982 2981 2981 2980 2979 2979 2978 2980 2982 2983 2985 2985 2986 2987 2991 2991 2992 2990 2983 2983 2981 2981 2976 2974
2949 2952 2955 2956 2957 2959 2961 2964 2966 2969 2972 2973 2975 2977 2977 2977 2978 2977 2978 2979 2980 2981 2981 2981 2981 2981 2979 2978 2978 2980 2982 2983 2984 2985 2986 2986 2987 2988 2989 2990 2986 2981 2979 2979 2981 2980 2974
2942 2945 2948 2950 2952 2954 2956 2959 2962 2965 2969 2970 2972 2974 2975 2976 2978 2977 2977 2978 2979 2980 2980 2981 2982 2980 2981 2981 2982 2983 2983 2984 2985 2986 2986 2988 2988 2988 2987 2987 2983 2978 2978 2979 2978 2974 2973
2934 2938 2941 2944 2946 2949 2952 2955 2959 2962 2965 2967 2969 2972 2973 2974 2976 2976 2976 2976 2977 2979 2981 2981 2983 2983 2983 2984 2984 2983 2984 2985 2985 2985 2986 2987 2987 2988 2988 2982 2978 2977 2977 2976 2975 2974 2973